Regional Weather Roundup
Issued by NWS Raleigh/Durham, NC

Home | Current Version | Previous Version | Text Only | Print | Product List | Glossary On
Versions: 1 2 3 4 5 6 7 8 9 10 11 12 13 14 15 16 17 18 19 20 21 22 23 24 25 26 27 28
000
ASUS42 KRAH 211610
RWRRAH
NORTH CAROLINA WEATHER ROUNDUP
NATIONAL WEATHER SERVICE RALEIGH NC
1100 AM EST SAT JAN 21 2017

NOTE: "FAIR" INDICATES FEW OR NO CLOUDS BELOW 12,000 FEET WITH NO
SIGNIFICANT WEATHER AND/OR OBSTRUCTIONS TO VISIBILITY.

NCZ001-053-055-056-065-067-211700-
WESTERN NORTH CAROLINA

CITY           SKY/WX    TMP DP  RH WIND       PRES   REMARKS
ASHEVILLE      PTSUNNY   49  47  93 CALM      29.89R
JEFFERSON      PTSUNNY   46  45  96 CALM      29.88F
MORGANTON      CLOUDY    52  52 100 CALM      29.93S FOG
HICKORY        CLOUDY    54  53  97 E5        29.88F FOG
RUTHERFORDTON  CLOUDY    54  54 100 CALM      29.89S FOG
MOUNT AIRY     FOG       51  49  94 CALM      29.90F VSB 3/4
BOONE          CLOUDY    47  47  99 CALM      29.89F
$$

NCZ021-022-025-041-071-084-088-211700-
CENTRAL NORTH CAROLINA

CITY           SKY/WX    TMP DP  RH WIND       PRES   REMARKS
CHARLOTTE      CLOUDY    55  53  93 VRB3      29.89S FOG
GREENSBORO     CLOUDY    54  54 100 S3        29.89F FOG
WINSTON-SALEM  CLOUDY    53  51  93 E5        29.89F FOG
RALEIGH-DURHAM FOG       52  52 100 CALM      29.91F VSB 1/8
FORT BRAGG     FOG       53  53 100 VRB3      29.89F VSB 3/4
FAYETTEVILLE   FOG       54  54 100 E6        29.90S VSB 1/4
BURLINGTON     CLOUDY    54  54 100 SE5       29.90S FOG
LAURINBURG     FOG       56  56 100 E3        29.90S VSB 1/2
$$

NCZ011-015-027-028-043-044-047-080-103-211700-
NORTHEASTERN NORTH CAROLINA

CITY           SKY/WX    TMP DP  RH WIND       PRES   REMARKS
ROCKY MT-WILSO FOG       50  50 100 CALM      29.92S VSB 3/4
GREENVILLE     CLOUDY    50  50 100 E5        29.94F
WASHINGTON     CLOUDY    51  51  97 SE3         N/A
ELIZABETH CITY FOG       49  49 100 S7        29.94F VSB 1
MANTEO         FOG       50  50 100 SE6       29.94F VSB 1/2
CAPE HATTERAS  CLOUDY    56  54  93 E6        29.92F FOG
$$

NCZ078-087-090-091-093-098-101-211700-
SOUTHEASTERN NORTH CAROLINA

CITY           SKY/WX    TMP DP  RH WIND       PRES   REMARKS
LUMBERTON      CLOUDY    58  58 100 SE5       29.90R FOG
GOLDSBORO      FOG       53  53 100 E6        29.90S VSB 1
KINSTON        CLOUDY    52  52 100 SE3       29.93S
KENANSVILLE    CLOUDY    52  52 100 E3        29.92S FOG
NEW BERN       CLOUDY    51  50  96 SE7       29.93F
CHERRY POINT   FOG       51  51 100 SE3       29.94F VSB 1/2
BEAUFORT       CLOUDY    55  55 100 E3        29.93F FOG
JACKSONVILLE   CLOUDY    53  53 100 SE9       29.92S
WILMINGTON     CLOUDY    60  59  96 E8        29.91F
$$





USA.gov is the U.S. government's official web portal to all federal, state and local government web resources and services.